This demonstration page uses our WeatherBlox Daily Observations layout. Learn more.

Left ArrowRight Arrow

39.01783, -85.05884

Hourly Observations for October 17, 2015

Temp ( °F °C ) Dew Point ( °F °C ) Humidity (%) Winds ( mph kmh ) Pressure ( in mb ) Visibility ( mi km ) Precip ( " mm )
12:52 am 00:52 Mostly Clear 45 7.2 31 -0.6 58 58 N 7 11 30.26 1025 10 16 N/A
1:52 am 01:52 Clear 43 6.1 31 -0.6 63 63 N 6 9 30.27 1025 10 16 N/A
2:52 am 02:52 Clear 42 5.6 31 -0.6 65 65 NNW 3 6 30.28 1025 10 16 N/A
3:52 am 03:52 Clear 40 4.4 31 -0.6 70 70 N N/A 30.28 1026 10 16 N/A
4:52 am 04:52 Clear 38 3.3 31 -0.6 76 76 N N/A 30.29 1026 10 16 N/A
5:52 am 05:52 Clear 37 2.8 31 -0.6 79 79 N N/A 30.30 1026 10 16 N/A
6:52 am 06:52 Clear 34 1.1 31 -0.6 89 89 N N/A 30.32 1027 9 14 N/A
7:52 am 07:52 Sunny 36 2.2 33 0.6 89 89 N N/A 30.34 1027 10 16 N/A
8:52 am 08:52 Sunny 40 4.4 35 1.7 83 83 N 3 6 30.35 1028 10 16 N/A
9:52 am 09:52 Partly Cloudy 44 6.7 34 1.1 68 68 E 3 6 30.37 1029 10 16 N/A
10:52 am 10:52 Cloudy 47 8.3 32 undefined 56 56 N N/A 30.38 1029 10 16 N/A
11:52 am 11:52 Mostly Cloudy 49 9.4 32 undefined 52 52 NW 5 7 30.38 1029 10 16 N/A
12:52 pm 12:52 Partly Cloudy 51 10.6 33 0.6 50 50 WNW 7 11 30.38 1029 10 16 N/A
1:52 pm 13:52 Mostly Cloudy 51 10.6 31 -0.6 46 46 WNW 13 20 30.36 1028 10 16 N/A
2:52 pm 14:52 Mostly Cloudy 52 11.1 30 -1.1 43 43 W 13 20 30.34 1028 10 16 N/A
3:52 pm 15:52 Mostly Cloudy 52 11.1 29 -1.7 41 41 NNW 12 19 30.34 1028 10 16 N/A
4:52 pm 16:52 Mostly Cloudy 53 11.7 27 -2.8 37 37 WNW 12 19 30.35 1028 10 16 N/A
5:52 pm 17:52 Mostly Cloudy 52 11.1 27 -2.8 38 38 NW 15 24 30.35 1028 10 16 N/A
6:52 pm 18:52 Partly Cloudy 48 8.9 30 -1.1 50 50 N 12 19 30.36 1028 10 16 N/A
7:52 pm 19:52 Mostly Clear 45 7.2 31 -0.6 58 58 NNW 8 13 30.37 1029 10 16 N/A
8:52 pm 20:52 Clear 44 6.7 29 -1.7 55 55 NNW 8 13 30.39 1029 10 16 N/A
9:52 pm 21:52 Clear 42 5.6 28 -2.2 58 58 NNW 7 11 30.40 1030 10 16 N/A
10:52 pm 22:52 Clear 41 5 27 -2.8 57 57 N 6 9 30.41 1030 10 16 N/A
11:52 pm 23:52 Clear 40 4.4 26 -3.3 58 58 N 8 13 30.42 1030 10 16 N/A

Powered by AerisWeather